Location: Treviso
(45.6669°N, 12.2430°E)
Time: 10:27:27
(UTC+02:00)

ISS - Pass Details

Date: 03 July 2022
Orbit: 414 x 420 km, 51.6° (Epoch: 02 July)

Event Time Altitude Azimuth Distance (km) Brightness Sun altitude
Exits shadow 01:48:59 12° 95° (E) 1,398 -1.1 -20.9°
Drops below altitude 10° 01:49:20 10° 91° (E) 1,495 -0.9 -20.9°
Sets 01:51:52 0° 71° (ENE) 2,364 0.4 -20.9°
